Nome, AK

1:58 AM AKST on February 10, 2016 (GMT -0900)
Nome

Weather History for PAOM - May, 2014

Change the Weather History Date:

Tuesday, May 27, 2014

  Actual Average Record
Temperature  
Mean Temperature 41 °F 41 °F  
Max Temperature 46 °F 48 °F 71 °F (2011)
Min Temperature 36 °F 35 °F 20 °F (1907)
Degree Days  
Heating Degree Days 24 24  
Month to date heating degree days 829 784  
Since 1 July heating degree days 11695 13097  
Cooling Degree Days 0    
Month to date cooling degree days 0  
Year to date cooling degree days 0  
Moisture  
Dew Point 40 °F    
Average Humidity 0    
Maximum Humidity 0    
Minimum Humidity 0    
Precipitation  
Precipitation 0.26 in 0.03 in 0.63 in (1948)
Month to date precipitation 0.85 0.75  
Year to date precipitation 4.00 4.03  
Snow  
Snow 0.00 in 0.10 in 1.80 in (2008)
Month to date snowfall 2.6 2.2  
Since 1 July snowfall 72.3 75.3  
Snow Depth 0.00 in    
Sea Level Pressure  
Sea Level Pressure 29.76 in    
Wind  
Wind Speed 13 mph (East)    
Max Wind Speed 23 mph    
Max Gust Speed 28 mph    
Visibility 8 miles    
Events Rain    
T = Trace of Precipitation, MM = Missing Value Source: NWS Daily Summary

Daily Weather History Graph

Daily Weather History Graph

Search for Another Location

Airport or City:

Trip Planner

Search our weather history database for the weather conditions in past years. The results will help you decide how hot, cold, wet, or windy it might be!

Date:

Astronomy

May. 27, 2014 Rise Set
Actual Time 5:03 AM AKDT 12:56 AM AKDT
Civil Twilight 3:31 AM AKDT 2:26 AM AKDT
Nautical Twilight Sun does not rise Sun does not rise
Astronomical Twilight Sun does not rise Sun does not rise
Moon 5:32 AM AKDT (5/27) 11:24 PM AKDT (5/27)
Length of Visible Light 22h 55m
Length of Day
19h 53m
Waning Crescent, 1% of the Moon is Illuminated
May 27
Waning Crescent
May 28
New
Jun 5
First Quarter
Jun 12
Full
Jun 19
Last Quarter

Hourly Weather History & Observations

Time (AKDT) Temp. Windchill Dew Point Humidity Pressure Visibility Wind Dir Wind Speed Gust Speed Precip Events Conditions
12:53 AM 36.0 °F 30.3 °F 35.1 °F 97% 29.81 in 10.0 mi East 6.9 mph - 0.00 in Rain Light Rain
1:53 AM 36.0 °F 30.3 °F 35.1 °F 97% 29.81 in 10.0 mi ENE 6.9 mph - 0.01 in Rain Light Rain
2:02 AM 36.0 °F 29.6 °F 35.1 °F 97% 29.81 in 10.0 mi ENE 8.1 mph - 0.00 in Rain Light Rain
2:53 AM 36.0 °F 30.3 °F 35.1 °F 97% 29.80 in 10.0 mi ENE 6.9 mph - 0.00 in Rain Light Rain
3:53 AM 37.0 °F 31.6 °F 35.1 °F 93% 29.80 in 10.0 mi ENE 6.9 mph - 0.00 in Rain Light Rain
4:53 AM 37.0 °F 30.4 °F 35.1 °F 93% 29.79 in 9.0 mi NE 9.2 mph - 0.01 in Rain Light Rain
5:53 AM 37.9 °F 32.7 °F 35.1 °F 89% 29.78 in 10.0 mi NNE 6.9 mph - 0.01 in Rain Light Rain
6:53 AM 39.9 °F 33.9 °F 37.0 °F 89% 29.77 in 10.0 mi ENE 9.2 mph - 0.00 in   Overcast
7:00 AM 39.9 °F 33.9 °F 37.0 °F 89% 29.76 in 10.0 mi ENE 9.2 mph - 0.00 in Rain Light Rain
7:21 AM 39.9 °F 32.9 °F 37.0 °F 89% 29.77 in 10.0 mi East 11.5 mph - 0.00 in Rain Light Rain
7:53 AM 39.9 °F 32.1 °F 37.0 °F 89% 29.76 in 10.0 mi ENE 13.8 mph - 0.00 in   Overcast
8:47 AM 39.2 °F 31.6 °F 37.4 °F 93% 29.76 in 5.0 mi East 12.7 mph - 0.02 in Rain Light Rain
8:53 AM 39.9 °F 32.1 °F 37.9 °F 93% 29.76 in 4.0 mi East 13.8 mph - 0.02 in Rain Light Rain
9:53 AM 41.0 °F 33.1 °F 39.0 °F 93% 29.76 in 7.0 mi East 15.0 mph - 0.02 in Rain Light Rain
10:53 AM 41.0 °F 32.8 °F 39.9 °F 96% 29.76 in 8.0 mi East 16.1 mph - 0.01 in Rain Light Rain
11:00 AM 41.0 °F 32.8 °F 41.0 °F 100% 29.75 in 7.0 mi ESE 16.1 mph - 0.00 in Rain Light Rain
11:53 AM 41.0 °F 32.8 °F 39.9 °F 96% 29.76 in 7.0 mi ESE 16.1 mph - 0.02 in Rain Light Rain
12:08 PM 41.0 °F 33.1 °F 39.9 °F 96% 29.76 in 8.0 mi ESE 15.0 mph - 0.01 in Rain Light Rain
12:53 PM 39.2 °F 32.0 °F 39.2 °F 100% 29.76 in 6.0 mi ESE 11.5 mph - N/A Rain Light Rain
1:10 PM 39.9 °F 32.9 °F 39.9 °F 100% 29.76 in 2.0 mi SE 11.5 mph - 0.00 in Rain Light Rain
1:13 PM 39.9 °F 32.9 °F 39.9 °F 100% 29.76 in 1.0 mi SE 11.5 mph - 0.00 in Rain Light Rain
1:53 PM 39.9 °F 33.4 °F 39.9 °F 100% 29.77 in 1.0 mi SE 10.4 mph - 0.01 in   Mist
2:12 PM 39.9 °F 33.4 °F 39.9 °F 100% 29.77 in 3.0 mi SE 10.4 mph - N/A   Overcast
2:44 PM 42.1 °F 35.7 °F 41.0 °F 96% 29.78 in 10.0 mi SE 11.5 mph - 0.00 in   Overcast
2:53 PM 42.1 °F 35.7 °F 42.1 °F 100% 29.78 in 10.0 mi SE 11.5 mph - 0.00 in   Overcast
3:25 PM 43.0 °F 36.0 °F 42.1 °F 97% 29.78 in 10.0 mi SE 13.8 mph - N/A   Overcast
3:46 PM 43.0 °F 35.7 °F 42.1 °F 97% 29.77 in 10.0 mi SE 15.0 mph - N/A   Overcast
3:53 PM 43.0 °F 36.0 °F 41.0 °F 93% 29.78 in 10.0 mi SE 13.8 mph - N/A   Overcast
4:17 PM 44.1 °F 37.7 °F 42.1 °F 93% 29.78 in 10.0 mi ESE 12.7 mph - N/A   Overcast
4:53 PM 44.1 °F 37.1 °F 43.0 °F 96% 29.77 in 10.0 mi ESE 15.0 mph - 0.00 in   Overcast
5:40 PM 46.0 °F 39.9 °F 44.1 °F 93% 29.76 in 10.0 mi ESE 13.8 mph - 0.00 in Rain Light Rain
5:53 PM 45.0 °F 38.2 °F 44.1 °F 97% 29.76 in 10.0 mi ESE 15.0 mph - 0.00 in Rain Light Rain
6:08 PM 45.0 °F 37.9 °F 44.1 °F 97% 29.76 in 10.0 mi East 16.1 mph - 0.00 in Rain Light Rain
6:34 PM 45.0 °F 37.1 °F 43.0 °F 93% 29.75 in 10.0 mi East 19.6 mph - 0.00 in Rain Light Rain
6:53 PM 45.0 °F 37.4 °F 44.1 °F 97% 29.74 in 6.0 mi East 18.4 mph - 0.00 in Rain Light Rain
7:30 PM 44.1 °F 35.4 °F 43.0 °F 96% 29.73 in 2.0 mi East 21.9 mph - 0.01 in Rain Light Rain
7:53 PM 44.1 °F 35.9 °F 43.0 °F 96% 29.73 in 2.5 mi East 19.6 mph - 0.02 in Rain Light Rain
8:17 PM 44.1 °F 36.8 °F 43.0 °F 96% 29.72 in 10.0 mi East 16.1 mph 25.3 mph 0.01 in Rain Light Rain
8:53 PM 43.0 °F 34.0 °F 43.0 °F 100% 29.70 in 6.0 mi ESE 21.9 mph - 0.02 in Rain Light Rain
9:53 PM 41.0 °F 32.5 °F 41.0 °F 100% 29.70 in 6.0 mi ESE 17.3 mph - 0.03 in Rain Light Rain
10:53 PM 41.0 °F 34.3 °F 41.0 °F 100% 29.70 in 7.0 mi ESE 11.5 mph - 0.02 in Rain Light Rain
11:32 PM 41.0 °F 33.9 °F 41.0 °F 100% 29.70 in 1.8 mi ESE 12.7 mph - 0.02 in Rain Light Rain
11:42 PM 41.0 °F 33.9 °F 41.0 °F 100% 29.70 in 3.0 mi ESE 12.7 mph - 0.03 in Rain Light Rain
11:53 PM 41.0 °F 33.9 °F 41.0 °F 100% 29.70 in 7.0 mi ESE 12.7 mph - 0.04 in Rain Light Rain